SM6LNJ-13 Weather Reports


Display with metric or nautical units.
time (UTC)temp
F
wind
direction
speed
MPH
gust
MPH
rain 1hr
in
rain 24hr
in
rain mn
in
humidity
%
barometer
mb
20260507044750 37 86 0.0 0.0 0.00 0.00 0.00 88 1412.8
20260507044550 37 90 0.0 0.0 0.00 0.00 0.00 88 1415.8
20260507044350 37 108 0.0 0.0 0.00 0.00 0.00 88 1418.9
20260507044151 37 91 0.0 0.0 0.00 0.00 0.00 88 1425.4
20260507043950 36 130 0.0 0.0 0.00 0.00 0.00 88 1428.6
20260507043750 36 101 0.0 0.0 0.00 0.00 0.00 88 1431.6
20260507043550 36 45 0.0 0.0 0.00 0.00 0.00 88 1435.0
20260507043350 36 124 0.0 0.0 0.00 0.00 0.00 88 1434.8
20260507043150 36 200 0.0 0.0 0.00 0.00 0.00 88 1441.4
20260507042950 36 96 0.0 0.0 0.00 0.00 0.00 88 1444.5
20260507042750 35 90 0.0 0.0 0.00 0.00 0.00 88 1447.8
20260507042550 35 90 0.0 0.0 0.00 0.00 0.00 88 1447.7
20260507042350 35 90 0.0 0.0 0.00 0.00 0.00 88 1447.6
20260507042150 35 90 0.0 0.0 0.00 0.00 0.00 88 1451.0
20260507041950 35 90 0.0 0.0 0.00 0.00 0.00 88 1450.9
20260507041750 35 90 0.0 0.0 0.00 0.00 0.00 88 1454.1
20260507041550 35 90 0.0 0.0 0.00 0.00 0.00 88 1457.5
20260507041350 35 90 0.0 0.0 0.00 0.00 0.00 88 1457.3
20260507041150 35 90 0.0 0.0 0.00 0.00 0.00 87 1460.6
20260507040950 35 96 0.0 0.0 0.00 0.00 0.00 87 1460.4
20260507040750 35 93 0.0 0.0 0.00 0.00 0.00 87 1463.6
20260507040550 35 67 0.0 0.0 0.00 0.00 0.00 87 1463.6
20260507040350 35 90 0.0 0.0 0.00 0.00 0.00 87 1463.7
20260507040150 35 90 0.0 0.0 0.00 0.00 0.00 87 1463.6
20260507035950 34 91 0.0 0.0 0.00 0.00 0.00 87 1463.5
20260507035750 34 97 0.0 0.0 0.00 0.00 0.00 87 1466.7
20260507035550 34 93 0.0 0.0 0.00 0.00 0.00 87 1466.5
20260507035350 34 92 0.0 0.0 0.00 0.00 0.00 87 1469.8
20260507035150 34 90 0.0 0.0 0.00 0.00 0.00 87 1469.7
20260507034950 34 90 0.0 0.0 0.00 0.00 0.00 87 1469.6
20260507034750 34 98 0.0 0.0 0.00 0.00 0.00 87 1469.6
20260507034550 34 100 0.0 0.0 0.00 0.00 0.00 87 1469.7
20260507034350 34 95 0.0 0.0 0.00 0.00 0.00 87 1469.7
20260507034150 34 90 0.0 0.0 0.00 0.00 0.00 87 1469.6
20260507033950 34 90 0.0 0.0 0.00 0.00 0.00 87 1469.6
20260507033750 34 72 0.0 0.0 0.00 0.00 0.00 87 1469.6
20260507033550 34 96 0.0 0.0 0.00 0.00 0.00 86 1469.6
20260507033350 34 115 0.0 0.0 0.00 0.00 0.00 86 1469.6
20260507033150 34 90 0.0 0.0 0.00 0.00 0.00 86 1469.6
20260507032950 34 90 0.0 0.0 0.00 0.00 0.00 86 1469.7
20260507032750 34 91 0.0 0.0 0.00 0.00 0.00 86 1469.8
20260507032550 34 66 0.0 0.0 0.00 0.00 0.00 86 1469.9
20260507032350 34 94 0.0 0.0 0.00 0.00 0.00 86 1466.5
20260507032150 34 93 0.0 0.0 0.00 0.00 0.00 86 1466.5
20260507031950 34 96 0.0 0.0 0.00 0.00 0.00 86 1469.7
20260507031750 34 135 0.0 0.0 0.00 0.00 0.00 86 1469.6
20260507031550 34 105 0.0 0.0 0.00 0.00 0.00 86 1469.6
20260507031350 34 109 0.0 0.0 0.00 0.00 0.00 86 1472.8
20260507031150 34 136 0.0 0.0 0.00 0.00 0.00 86 1472.6
20260507030950 34 93 0.0 0.0 0.00 0.00 0.00 86 1472.6
20260507030750 34 90 0.0 0.0 0.00 0.00 0.00 85 1472.9
20260507030550 34 99 0.0 0.0 0.00 0.00 0.00 85 1469.6
20260507030350 34 99 0.0 0.0 0.00 0.00 0.00 85 1469.6
20260507030150 34 90 0.0 0.0 0.00 0.00 0.00 85 1469.8
20260507025950 34 99 0.0 0.0 0.00 0.00 0.00 85 1469.8
20260507025750 34 67 0.0 0.0 0.00 0.00 0.00 85 1470.0
20260507025550 34 110 0.0 0.0 0.00 0.00 0.00 85 1466.8
20260507025350 34 114 0.0 0.0 0.00 0.00 0.00 85 1466.8
20260507025150 34 96 0.0 1.0 0.00 0.00 0.00 85 1466.9
20260507024950 34 117 0.0 1.0 0.00 0.00 0.00 85 1466.8
20260507024750 34 106 0.0 1.0 0.00 0.00 0.00 85 1466.8
20260507024550 34 93 0.0 1.0 0.00 0.00 0.00 85 1466.9
20260507024350 35 107 0.0 1.0 0.00 0.00 0.00 85 1467.0
20260507024150 35 103 0.0 0.0 0.00 0.00 0.00 84 1463.6
20260507023950 35 88 0.0 0.0 0.00 0.00 0.00 84 1463.8
20260507023750 35 60 0.0 0.0 0.00 0.00 0.00 84 1460.6
20260507023550 35 109 0.0 1.0 0.00 0.00 0.00 84 1460.6
20260507023350 35 148 0.0 1.0 0.00 0.00 0.00 84 1463.9
20260507023150 35 197 0.0 1.0 0.00 0.00 0.00 84 1463.9
20260507022950 35 99 0.0 1.0 0.00 0.00 0.00 84 1463.8
20260507022750 35 99 0.0 1.0 0.00 0.00 0.00 84 1463.9
20260507022550 35 90 0.0 0.0 0.00 0.00 0.00 84 1463.9
20260507022350 35 93 0.0 0.0 0.00 0.00 0.00 84 1460.6
20260507022150 35 75 0.0 0.0 0.00 0.00 0.00 83 1460.8
20260507021950 35 50 0.0 0.0 0.00 0.00 0.00 83 1457.6
20260507021750 35 85 0.0 0.0 0.00 0.00 0.00 83 1454.4
20260507021550 35 52 0.0 0.0 0.00 0.00 0.00 83 1454.5
20260507021350 36 87 0.0 0.0 0.00 0.00 0.00 83 1451.3
20260507021150 36 159 0.0 0.0 0.00 0.00 0.00 83 1448.0
20260507020950 36 172 0.0 1.0 0.00 0.00 0.00 83 1448.1
20260507020750 36 126 0.0 1.0 0.00 0.00 0.00 83 1448.1
20260507020550 36 107 0.0 1.0 0.00 0.00 0.00 83 1448.2
20260507020350 36 111 0.0 1.0 0.00 0.00 0.00 83 1444.9
20260507020150 36 100 0.0 1.0 0.00 0.00 0.00 83 1445.0
20260507015950 36 126 0.0 1.0 0.00 0.00 0.00 82 1445.0
20260507015750 36 165 0.0 1.0 0.00 0.00 0.00 82 1445.0
20260507015550 36 100 0.0 1.0 0.00 0.00 0.00 82 1441.8
20260507015350 36 94 0.0 1.0 0.00 0.00 0.00 82 1438.6
20260507015150 36 108 0.0 1.0 0.00 0.00 0.00 82 1438.5
20260507014950 36 189 0.0 0.0 0.00 0.00 0.00 82 1441.7
20260507014750 36 242 0.0 0.0 0.00 0.00 0.00 82 1441.8
20260507014550 36 106 0.0 0.0 0.00 0.00 0.00 81 1438.5
20260507014350 36 172 0.0 1.0 0.00 0.00 0.00 81 1441.8
20260507014150 36 198 0.0 1.0 0.00 0.00 0.00 81 1441.9
20260507013950 36 94 0.0 1.0 0.00 0.00 0.00 81 1438.5
20260507013750 36 110 0.0 1.0 0.00 0.00 0.00 81 1438.6
20260507013550 36 103 0.0 1.0 0.00 0.00 0.00 81 1435.4
20260507013350 36 110 0.0 1.0 0.00 0.00 0.00 80 1432.1
20260507013150 37 109 0.0 1.0 0.00 0.00 0.00 80 1432.3
20260507012950 37 105 0.0 1.0 0.00 0.00 0.00 80 1432.3
20260507012750 37 103 0.0 0.0 0.00 0.00 0.00 80 1432.2
20260507012550 37 108 0.0 0.0 0.00 0.00 0.00 80 1432.2
20260507012350 37 103 0.0 0.0 0.00 0.00 0.00 79 1432.2
20260507012150 36 127 0.0 0.0 0.00 0.00 0.00 79 1435.4
20260507011950 36 102 0.0 0.0 0.00 0.00 0.00 79 1432.1
20260507011750 36 97 0.0 0.0 0.00 0.00 0.00 79 1432.2
20260507011550 37 100 0.0 0.0 0.00 0.00 0.00 79 1432.2
20260507011350 37 115 0.0 1.0 0.00 0.00 0.00 78 1432.3
20260507011150 37 94 0.0 1.0 0.00 0.00 0.00 78 1429.0
20260507010950 37 102 0.0 1.0 0.00 0.00 0.00 78 1425.8
20260507010750 37 101 0.0 1.0 0.00 0.00 0.00 78 1425.9
20260507010550 37 94 0.0 1.0 0.00 0.00 0.00 77 1422.7
20260507010350 37 118 0.0 1.0 0.00 0.00 0.00 77 1422.9
20260507010150 37 93 0.0 1.0 0.00 0.00 0.00 77 1422.8
20260507005950 37 49 0.0 1.0 0.00 0.00 0.00 77 1422.6
20260507005750 37 54 0.0 1.0 0.00 0.00 0.00 76 1422.8
20260507005550 37 92 0.0 0.0 0.00 0.00 0.00 76 1422.9
20260507005350 37 93 0.0 0.0 0.00 0.00 0.00 76 1422.9
20260507005150 37 91 0.0 0.0 0.00 0.00 0.00 76 1422.9
20260507004950 37 105 0.0 0.0 0.00 0.00 0.00 76 1419.5
20260507004750 37 79 0.0 0.0 0.00 0.00 0.00 75 1419.6
20260507004350 38 76 0.0 1.0 0.00 0.00 0.00 75 1416.5
20260507004150 38 90 0.0 1.0 0.00 0.00 0.00 75 1416.8
20260507003950 38 91 0.0 1.0 0.00 0.00 0.00 75 1413.7
20260507003750 38 97 0.0 1.0 0.00 0.00 0.00 75 1413.8
20260507003550 38 94 0.0 1.0 0.00 0.00 0.00 75 1413.9
20260507003350 38 97 0.0 1.0 0.00 0.00 0.00 75 1414.1
20260507003150 38 94 0.0 1.0 0.00 0.00 0.00 74 1414.2
20260507002950 38 90 0.0 1.0 0.00 0.00 0.00 74 1414.4
20260507002750 39 95 0.0 1.0 0.00 0.00 0.00 74 1411.1
20260507002550 39 91 0.0 1.0 0.00 0.00 0.00 74 1411.2
20260507002350 39 97 0.0 0.0 0.00 0.00 0.00 74 1411.3
20260507002150 39 92 0.0 0.0 0.00 0.00 0.00 74 1411.4
20260507001950 39 88 0.0 0.0 0.00 0.00 0.00 74 1411.7
20260507001750 39 76 0.0 1.0 0.00 0.00 0.00 73 1412.2
20260507001550 40 90 0.0 1.0 0.00 0.00 0.00 73 1412.6
20260507001350 40 93 0.0 1.0 0.00 0.00 0.00 73 1412.9
20260507001150 40 92 0.0 1.0 0.00 0.00 0.00 73 1413.1
20260507000950 40 92 0.0 0.0 0.00 0.00 0.00 73 1413.4
20260507000750 40 101 0.0 1.0 0.00 0.00 0.00 73 1413.5
20260507000550 40 100 0.0 1.0 0.00 0.00 0.00 73 1413.5
20260507000350 40 119 0.0 1.0 0.00 0.00 0.00 72 1413.5
20260507000150 41 195 0.0 1.0 0.00 0.00 0.00 72 1413.8
20260506235950 41 114 0.0 1.0 0.00 0.00 0.00 72 1414.3
20260506235750 41 132 0.0 1.0 0.00 0.00 0.00 72 1410.9
20260506235550 41 84 0.0 1.0 0.00 0.00 0.00 71 1411.1
20260506235350 41 148 0.0 2.0 0.00 0.00 0.00 71 1411.5
20260506235150 42 167 0.0 2.0 0.00 0.00 0.00 71 1412.0
20260506234950 42 92 0.0 2.0 0.00 0.00 0.00 70 1412.5
20260506234750 43 175 0.0 2.0 0.00 0.00 0.00 70 1412.9
20260506234550 43 190 0.0 2.0 0.00 0.00 0.00 69 1413.5
20260506234350 43 136 0.0 2.0 0.00 0.00 0.00 69 1414.0
20260506234150 44 103 0.0 2.0 0.00 0.00 0.00 69 1414.3
20260506233950 44 161 0.0 2.0 0.00 0.00 0.00 69 1414.6
20260506233750 44 172 0.0 3.0 0.00 0.00 0.00 69 1414.8
20260506233550 44 230 0.0 3.0 0.00 0.00 0.00 69 1415.1
20260506233350 44 170 0.0 3.0 0.00 0.00 0.00 69 1415.3
20260506233150 44 190 1.0 3.0 0.00 0.00 0.00 70 1415.3
20260506232950 44 211 1.0 3.0 0.00 0.00 0.00 70 1415.1
20260506232750 44 210 1.0 2.0 0.00 0.00 0.00 71 1415.0
20260506232550 44 230 0.0 2.0 0.00 0.00 0.00 71 1415.1
20260506232350 44 170 0.0 2.0 0.00 0.00 0.00 71 1415.2
20260506232150 44 153 0.0 4.0 0.00 0.00 0.00 71 1415.4
20260506231950 45 204 1.0 4.0 0.00 0.00 0.00 71 1415.5
20260506231750 45 165 0.0 4.0 0.00 0.00 0.00 71 1415.6
20260506231550 45 205 1.0 4.0 0.00 0.00 0.00 71 1415.6
20260506231350 45 166 1.0 4.0 0.00 0.00 0.00 71 1415.5
20260506231150 44 203 1.0 4.0 0.00 0.00 0.00 71 1415.4
20260506230951 45 193 0.0 5.0 0.00 0.00 0.00 71 1415.6
20260506230750 45 151 0.0 5.0 0.00 0.00 0.00 71 1415.9
20260506230550 45 183 0.0 5.0 0.00 0.00 0.00 71 1416.2
20260506230350 45 198 1.0 5.0 0.00 0.00 0.00 70 1416.2
20260506230150 45 188 1.0 3.0 0.00 0.00 0.00 70 1416.2
20260506225950 45 197 1.0 4.0 0.00 0.00 0.00 70 1416.3
20260506225750 45 198 1.0 4.0 0.00 0.00 0.00 70 1416.4
20260506225550 45 192 1.0 4.0 0.00 0.00 0.00 70 1416.4
20260506225350 45 225 1.0 4.0 0.00 0.00 0.00 70 1416.3
20260506225150 45 222 1.0 4.0 0.00 0.00 0.00 69 1416.1
20260506224950 45 167 0.0 4.0 0.00 0.00 0.00 68 1416.0
20260506224750 45 216 1.0 4.0 0.00 0.00 0.00 68 1416.0
20260506224550 45 217 1.0 4.0 0.00 0.00 0.00 69 1416.0
20260506224350 45 207 1.0 4.0 0.00 0.00 0.00 69 1415.9
20260506224150 45 247 1.0 4.0 0.00 0.00 0.00 69 1415.8
20260506223950 45 220 1.0 3.0 0.00 0.00 0.00 68 1415.6
20260506223750 45 155 0.0 2.0 0.00 0.00 0.00 68 1415.7
20260506223550 45 104 0.0 2.0 0.00 0.00 0.00 68 1415.7
20260506223350 45 204 1.0 3.0 0.00 0.00 0.00 68 1415.8
20260506223150 45 191 1.0 4.0 0.00 0.00 0.00 68 1415.9
20260506222950 45 173 1.0 4.0 0.00 0.00 0.00 68 1416.0
20260506222750 45 178 0.0 4.0 0.00 0.00 0.00 68 1416.2
20260506222550 45 194 1.0 4.0 0.00 0.00 0.00 68 1416.2
20260506222352 45 176 1.0 4.0 0.00 0.00 0.00 67 1416.1
20260506222150 45 225 1.0 3.0 0.00 0.00 0.00 67 1416.1
20260506221951 45 214 1.0 3.0 0.00 0.00 0.00 67 1416.1
20260506221750 45 196 1.0 4.0 0.00 0.00 0.00 67 1416.2
20260506221550 45 198 1.0 5.0 0.00 0.00 0.00 67 1416.3
20260506221350 45 206 1.0 5.0 0.00 0.00 0.00 67 1416.3
20260506221150 45 179 1.0 5.0 0.00 0.00 0.00 67 1416.4
20260506220950 45 199 2.0 5.0 0.00 0.00 0.00 67 1413.2
20260506220750 45 174 1.0 4.0 0.00 0.00 0.00 67 1416.6
20260506220550 45 231 1.0 4.0 0.00 0.00 0.00 67 1413.2
20260506220350 45 274 2.0 4.0 0.00 0.00 0.00 67 1416.6
20260506220150 45 197 1.0 4.0 0.00 0.00 0.00 66 1416.5
20260506215950 45 198 1.0 4.0 0.00 0.00 0.00 66 1416.5
20260506215750 45 193 1.0 4.0 0.00 0.00 0.00 66 1413.2
20260506215550 45 221 2.0 4.0 0.00 0.00 0.00 66 1416.5
20260506215350 45 187 1.0 4.0 0.00 0.00 0.00 65 1416.5
20260506215150 45 192 1.0 4.0 0.00 0.00 0.00 65 1413.2
20260506214950 45 180 1.0 4.0 0.00 0.00 0.00 65 1413.3
20260506214750 45 150 1.0 4.0 0.00 0.00 0.00 64 1413.3
20260506214550 46 183 1.0 4.0 0.00 0.00 0.00 64 1413.4
20260506214350 46 198 1.0 4.0 0.00 0.00 0.00 63 1416.8
20260506214150 46 216 1.0 4.0 0.00 0.00 0.00 63 1416.9
20260506213950 46 195 1.0 6.0 0.00 0.00 0.00 63 1417.0
20260506213750 46 198 1.0 6.0 0.00 0.00 0.00 63 1413.6
20260506213550 46 164 1.0 6.0 0.00 0.00 0.00 63 1417.0
20260506213350 46 179 1.0 6.0 0.00 0.00 0.00 62 1413.6
20260506213150 46 203 1.0 5.0 0.00 0.00 0.00 62 1413.6
20260506212950 46 196 1.0 5.0 0.00 0.00 0.00 61 1413.6
20260506212750 46 209 1.0 5.0 0.00 0.00 0.00 61 1413.6
20260506212550 46 241 2.0 5.0 0.00 0.00 0.00 61 1413.7
20260506212350 46 163 1.0 5.0 0.00 0.00 0.00 61 1413.8
20260506212151 46 186 1.0 5.0 0.00 0.00 0.00 60 1413.8
20260506211950 46 256 2.0 5.0 0.00 0.00 0.00 60 1413.8
20260506211751 46 204 1.0 5.0 0.00 0.00 0.00 59 1417.1
20260506211551 46 195 1.0 5.0 0.00 0.00 0.00 59 1413.7
20260506211350 46 145 1.0 5.0 0.00 0.00 0.00 59 1413.8
20260506211150 46 178 1.0 4.0 0.00 0.00 0.00 58 1413.9
20260506210950 46 212 1.0 4.0 0.00 0.00 0.00 58 1414.0
20260506210750 46 211 2.0 4.0 0.00 0.00 0.00 57 1414.0
20260506210550 46 201 2.0 4.0 0.00 0.00 0.00 57 1414.1
20260506210350 46 197 1.0 4.0 0.00 0.00 0.00 57 1414.1
20260506210150 46 219 1.0 4.0 0.00 0.00 0.00 57 1414.1
20260506205950 46 205 1.0 4.0 0.00 0.00 0.00 56 1414.2
20260506205750 46 218 2.0 6.0 0.00 0.00 0.00 56 1414.2
20260506205550 46 244 2.0 6.0 0.00 0.00 0.00 56 1414.2
20260506205350 46 179 1.0 6.0 0.00 0.00 0.00 56 1414.3
20260506205150 46 210 2.0 6.0 0.00 0.00 0.00 56 1414.3
20260506204950 46 194 2.0 6.0 0.00 0.00 0.00 56 1414.3
20260506204750 46 217 1.0 4.0 0.00 0.00 0.00 55 1414.2
20260506204550 46 200 1.0 4.0 0.00 0.00 0.00 55 1414.3
20260506204350 46 249 1.0 5.0 0.00 0.00 0.00 55 1414.3
20260506204150 46 175 1.0 5.0 0.00 0.00 0.00 56 1414.3
20260506203950 46 214 1.0 5.0 0.00 0.00 0.00 55 1414.3
20260506203750 46 182 1.0 5.0 0.00 0.00 0.00 55 1414.3
20260506203550 46 203 1.0 5.0 0.00 0.00 0.00 55 1414.4
20260506203350 46 215 1.0 5.0 0.00 0.00 0.00 56 1414.5
20260506203150 46 203 1.0 5.0 0.00 0.00 0.00 56 1414.5
20260506202950 46 239 2.0 5.0 0.00 0.00 0.00 56 1414.5
20260506202750 46 169 1.0 6.0 0.00 0.00 0.00 56 1414.5
20260506202550 46 215 2.0 6.0 0.00 0.00 0.00 57 1414.6
20260506202350 46 148 1.0 6.0 0.00 0.00 0.00 56 1414.5
20260506202150 46 233 2.0 6.0 0.00 0.00 0.00 55 1414.6
20260506201950 46 271 2.0 6.0 0.00 0.00 0.00 56 1414.4
20260506201750 46 206 1.0 4.0 0.00 0.00 0.00 57 1414.4
20260506201550 46 200 1.0 4.0 0.00 0.00 0.00 56 1414.3
20260506201350 46 215 1.0 4.0 0.00 0.00 0.00 56 1414.2
20260506201150 46 151 0.0 4.0 0.00 0.00 0.00 56 1414.3
20260506200950 46 165 1.0 4.0 0.00 0.00 0.00 56 1414.3
20260506200750 46 188 1.0 3.0 0.00 0.00 0.00 57 1414.4
20260506200550 46 215 1.0 3.0 0.00 0.00 0.00 56 1414.5
20260506200350 46 236 1.0 3.0 0.00 0.00 0.00 55 1414.5
20260506200150 46 162 1.0 3.0 0.00 0.00 0.00 55 1414.5
20260506195750 46 190 1.0 4.0 0.00 0.00 0.00 56 1414.5
20260506195550 47 180 1.0 5.0 0.00 0.00 0.00 57 1414.6
20260506195350 47 198 1.0 5.0 0.00 0.00 0.00 57 1414.8
20260506195150 47 201 1.0 5.0 0.00 0.00 0.00 57 1415.0
20260506194950 47 208 1.0 5.0 0.00 0.00 0.00 56 1415.0
20260506194750 47 220 1.0 4.0 0.00 0.00 0.00 56 1415.0
20260506194550 47 187 1.0 4.0 0.00 0.00 0.00 57 1415.1
20260506194350 47 204 1.0 4.0 0.00 0.00 0.00 56 1415.1
20260506194150 47 196 2.0 5.0 0.00 0.00 0.00 55 1415.1
20260506193950 47 206 2.0 5.0 0.00 0.00 0.00 56 1415.0
20260506193750 47 195 1.0 5.0 0.00 0.00 0.00 56 1415.0
20260506193550 47 178 1.0 5.0 0.00 0.00 0.00 56 1415.1
20260506193350 47 192 1.0 5.0 0.00 0.00 0.00 56 1415.1
20260506193152 47 217 1.0 5.0 0.00 0.00 0.00 57 1415.2
20260506193145 47 215 2.0 5.0 0.00 0.00 0.00 57 1415.1
20260506192750 47 217 1.0 4.0 0.00 0.00 0.00 57 1415.1
20260506192550 47 193 1.0 5.0 0.00 0.00 0.00 57 1415.2
20260506192350 47 204 1.0 5.0 0.00 0.00 0.00 57 1415.3
20260506192150 47 179 1.0 5.0 0.00 0.00 0.00 57 1415.4
20260506191950 47 214 2.0 5.0 0.00 0.00 0.00 57 1415.5
20260506191750 47 191 1.0 5.0 0.00 0.00 0.00 57 1415.4
20260506191550 47 225 1.0 4.0 0.00 0.00 0.00 58 1415.5
20260506191350 47 195 1.0 5.0 0.00 0.00 0.00 58 1415.7
20260506191150 47 214 1.0 8.0 0.00 0.00 0.00 57 1415.9
20260506190950 48 229 2.0 8.0 0.00 0.00 0.00 57 1416.0
20260506190750 48 206 2.0 8.0 0.00 0.00 0.00 57 1416.1
20260506190550 48 177 1.0 8.0 0.00 0.00 0.00 58 1416.1
20260506190350 48 198 2.0 8.0 0.00 0.00 0.00 58 1416.1
20260506190150 48 189 2.0 7.0 0.00 0.00 0.00 58 1416.2
20260506185950 48 201 1.0 7.0 0.00 0.00 0.00 58 1416.3
20260506185750 48 222 2.0 7.0 0.00 0.00 0.00 57 1416.4
20260506185550 48 190 1.0 6.0 0.00 0.00 0.00 58 1416.5
20260506185350 48 237 1.0 6.0 0.00 0.00 0.00 58 1416.6
20260506185150 48 202 1.0 5.0 0.00 0.00 0.00 58 1416.7
20260506184950 48 188 1.0 5.0 0.00 0.00 0.00 57 1416.7
20260506184750 48 200 1.0 5.0 0.00 0.00 0.00 57 1416.8
20260506184550 48 216 1.0 6.0 0.00 0.00 0.00 57 1416.9
20260506184350 48 208 1.0 6.0 0.00 0.00 0.00 57 1417.1
20260506184150 49 207 1.0 6.0 0.00 0.00 0.00 56 1417.3
20260506183950 49 222 1.0 6.0 0.00 0.00 0.00 55 1417.4
20260506183750 49 205 1.0 6.0 0.00 0.00 0.00 55 1417.6
20260506183550 49 178 1.0 4.0 0.00 0.00 0.00 54 1417.9
20260506183350 49 192 1.0 4.0 0.00 0.00 0.00 53 1418.3
20260506183150 50 206 1.0 4.0 0.00 0.00 0.00 53 1418.6
20260506182950 50 200 1.0 4.0 0.00 0.00 0.00 52 1418.9
20260506182750 50 182 0.0 3.0 0.00 0.00 0.00 51 1419.3
20260506182550 51 126 1.0 3.0 0.00 0.00 0.00 50 1419.9
20260506182350 51 194 0.0 4.0 0.00 0.00 0.00 49 1420.6
20260506182150 52 163 1.0 4.0 0.00 0.00 0.00 48 1421.5
20260506181950 53 183 0.0 4.0 0.00 0.00 0.00 45 1423.0
20260506181750 54 194 1.0 4.0 0.00 0.00 0.00 43 1425.0
20260506181550 57 167 1.0 4.0 0.00 0.00 0.00 41 1427.9
20260506181350 58 204 1.0 4.0 0.00 0.00 0.00 40 1430.1
20260506181150 59 172 1.0 4.0 0.00 0.00 0.00 40 1430.8
20260506180950 59 229 1.0 4.0 0.00 0.00 0.00 40 1431.5
20260506180750 60 213 0.0 4.0 0.00 0.00 0.00 40 1432.3
20260506180550 60 201 1.0 4.0 0.00 0.00 0.00 40 1432.4
20260506180350 60 214 0.0 4.0 0.00 0.00 0.00 40 1432.8
20260506180150 61 130 0.0 4.0 0.00 0.00 0.00 40 1433.1
20260506175950 61 198 1.0 4.0 0.00 0.00 0.00 39 1433.6
20260506175750 61 155 0.0 4.0 0.00 0.00 0.00 40 1433.4
20260506175551 61 188 1.0 4.0 0.00 0.00 0.00 40 1433.0
20260506175350 60 195 1.0 4.0 0.00 0.00 0.00 40 1432.5
20260506175150 60 176 1.0 4.0 0.00 0.00 0.00 41 1432.0
20260506174950 60 224 2.0 4.0 0.00 0.00 0.00 41 1432.1
20260506174750 60 178 1.0 5.0 0.00 0.00 0.00 41 1432.0
20260506174550 59 189 1.0 5.0 0.00 0.00 0.00 42 1431.5
20260506174350 59 236 1.0 5.0 0.00 0.00 0.00 43 1430.9
20260506174150 59 231 2.0 5.0 0.00 0.00 0.00 42 1430.5
20260506173950 59 212 1.0 4.0 0.00 0.00 0.00 42 1431.0
20260506173750 60 190 1.0 4.0 0.00 0.00 0.00 40 1432.0
20260506173550 61 214 1.0 4.0 0.00 0.00 0.00 40 1433.8
20260506173350 62 240 1.0 4.0 0.00 0.00 0.00 40 1434.9
20260506173150 63 201 1.0 4.0 0.00 0.00 0.00 41 1436.3
20260506172950 63 199 1.0 4.0 0.00 0.00 0.00 42 1435.9
20260506172750 62 172 1.0 4.0 0.00 0.00 0.00 43 1435.1
20260506172550 61 202 1.0 4.0 0.00 0.00 0.00 43 1434.2
20260506172350 62 205 1.0 4.0 0.00 0.00 0.00 43 1434.3
20260506172150 61 183 1.0 6.0 0.00 0.00 0.00 43 1434.3
20260506171950 61 197 1.0 6.0 0.00 0.00 0.00 43 1434.0
20260506171750 61 199 2.0 6.0 0.00 0.00 0.00 43 1433.7
20260506171550 61 194 1.0 6.0 0.00 0.00 0.00 43 1433.7
20260506171352 62 221 2.0 6.0 0.00 0.00 0.00 43 1434.4
20260506171150 61 226 2.0 6.0 0.00 0.00 0.00 43 1434.0
20260506170950 61 215 2.0 6.0 0.00 0.00 0.00 43 1434.1
20260506170750 61 187 1.0 6.0 0.00 0.00 0.00 43 1434.2
20260506170550 61 195 2.0 6.0 0.00 0.00 0.00 43 1433.8
20260506170350 62 189 2.0 6.0 0.00 0.00 0.00 43 1434.3
20260506170150 62 213 1.0 6.0 0.00 0.00 0.00 43 1434.4
20260506165950 61 245 2.0 6.0 0.00 0.00 0.00 43 1433.8
20260506165750 61 224 2.0 8.0 0.00 0.00 0.00 43 1433.9
20260506165550 62 239 2.0 8.0 0.00 0.00 0.00 43 1434.5
20260506165350 62 207 2.0 8.0 0.00 0.00 0.00 44 1434.7
20260506165150 61 182 2.0 8.0 0.00 0.00 0.00 44 1434.1
20260506164950 62 211 2.0 7.0 0.00 0.00 0.00 45 1434.5
20260506164750 61 216 2.0 7.0 0.00 0.00 0.00 45 1434.0
20260506164550 61 190 1.0 8.0 0.00 0.00 0.00 45 1433.4
20260506164350 60 192 2.0 8.0 0.00 0.00 0.00 44 1432.4
20260506164150 61 199 2.0 8.0 0.00 0.00 0.00 43 1433.1
20260506163950 61 217 3.0 8.0 0.00 0.00 0.00 43 1433.4
20260506163750 62 195 1.0 7.0 0.00 0.00 0.00 45 1435.0
20260506163550 62 214 2.0 7.0 0.00 0.00 0.00 45 1435.4
20260506163350 62 194 2.0 7.0 0.00 0.00 0.00 44 1435.4
20260506163150 63 211 1.0 7.0 0.00 0.00 0.00 46 1435.8
20260506162950 62 195 1.0 7.0 0.00 0.00 0.00 46 1435.1
20260506162750 62 207 2.0 7.0 0.00 0.00 0.00 46 1435.1
20260506162550 62 228 1.0 4.0 0.00 0.00 0.00 47 1435.0
20260506162350 62 198 1.0 4.0 0.00 0.00 0.00 46 1434.4
20260506162150 62 201 2.0 5.0 0.00 0.00 0.00 46 1434.3
20260506161950 62 203 1.0 5.0 0.00 0.00 0.00 47 1435.2
20260506161750 62 161 1.0 6.0 0.00 0.00 0.00 48 1434.9
20260506161550 61 184 1.0 6.0 0.00 0.00 0.00 49 1433.9
20260506161350 61 192 1.0 6.0 0.00 0.00 0.00 50 1433.1
20260506161150 60 228 2.0 6.0 0.00 0.00 0.00 50 1432.6
20260506160950 60 195 1.0 6.0 0.00 0.00 0.00 49 1432.8
20260506160750 60 204 2.0 6.0 0.00 0.00 0.00 50 1432.7
20260506160550 60 214 1.0 6.0 0.00 0.00 0.00 50 1432.8
20260506160350 60 214 1.0 6.0 0.00 0.00 0.00 50 1432.2
20260506160150 60 220 2.0 6.0 0.00 0.00 0.00 50 1431.7
20260506155950 59 209 2.0 6.0 0.00 0.00 0.00 50 1431.4
20260506155750 59 229 3.0 6.0 0.00 0.00 0.00 49 1430.9
20260506155550 59 197 1.0 6.0 0.00 0.00 0.00 50 1431.0
20260506155350 59 233 2.0 6.0 0.00 0.00 0.00 49 1430.9
20260506155150 60 202 1.0 4.0 0.00 0.00 0.00 49 1431.7
20260506154950 60 184 1.0 4.0 0.00 0.00 0.00 49 1432.0
20260506154750 60 209 1.0 4.0 0.00 0.00 0.00 48 1432.0
20260506154550 60 206 1.0 4.0 0.00 0.00 0.00 48 1432.3
20260506154350 60 198 1.0 4.0 0.00 0.00 0.00 48 1432.7
20260506154150 60 198 1.0 5.0 0.00 0.00 0.00 49 1432.5
20260506153950 60 206 1.0 5.0 0.00 0.00 0.00 50 1432.2
20260506153750 59 210 1.0 5.0 0.00 0.00 0.00 50 1431.6
20260506153551 59 178 2.0 5.0 0.00 0.00 0.00 50 1430.9
20260506153350 59 225 2.0 5.0 0.00 0.00 0.00 50 1430.8
20260506153150 59 234 1.0 5.0 0.00 0.00 0.00 49 1430.5
20260506152950 59 222 2.0 5.0 0.00 0.00 0.00 49 1430.5
20260506152750 58 229 1.0 5.0 0.00 0.00 0.00 50 1430.1
20260506152550 58 216 2.0 6.0 0.00 0.00 0.00 50 1429.9
20260506152350 58 218 2.0 6.0 0.00 0.00 0.00 50 1430.4
20260506152150 58 215 2.0 6.0 0.00 0.00 0.00 49 1430.2
20260506151950 59 213 1.0 6.0 0.00 0.00 0.00 50 1430.4
20260506151750 59 201 2.0 6.0 0.00 0.00 0.00 48 1430.6
20260506151550 60 205 1.0 5.0 0.00 0.00 0.00 48 1432.2
20260506151150 60 181 1.0 4.0 0.00 0.00 0.00 48 1432.6
20260506150950 60 191 1.0 4.0 0.00 0.00 0.00 48 1432.9
20260506150750 61 201 1.0 4.0 0.00 0.00 0.00 47 1433.3
20260506150550 61 200 1.0 4.0 0.00 0.00 0.00 47 1434.0
20260506150350 62 166 1.0 4.0 0.00 0.00 0.00 47 1434.8
20260506150150 62 209 1.0 3.0 0.00 0.00 0.00 47 1434.9
20260506145950 62 182 1.0 3.0 0.00 0.00 0.00 46 1434.9
20260506145750 62 145 1.0 3.0 0.00 0.00 0.00 46 1435.4
20260506145550 63 168 1.0 3.0 0.00 0.00 0.00 45 1435.6
20260506145350 63 208 1.0 3.0 0.00 0.00 0.00 45 1436.0
20260506145150 63 195 1.0 4.0 0.00 0.00 0.00 45 1436.4
20260506144950 63 238 1.0 4.0 0.00 0.00 0.00 46 1436.6
20260506144750 63 196 1.0 4.0 0.00 0.00 0.00 45 1436.7
20260506144550 63 201 1.0 4.0 0.00 0.00 0.00 45 1436.7
20260506144350 64 221 2.0 4.0 0.00 0.00 0.00 45 1437.2
20260506144150 64 210 1.0 4.0 0.00 0.00 0.00 45 1437.7
20260506143950 64 236 1.0 4.0 0.00 0.00 0.00 44 1437.8
20260506143750 64 203 1.0 5.0 0.00 0.00 0.00 44 1438.2
20260506143550 65 210 1.0 5.0 0.00 0.00 0.00 44 1438.5
20260506143350 64 214 1.0 5.0 0.00 0.00 0.00 45 1438.2
20260506143151 64 238 2.0 5.0 0.00 0.00 0.00 44 1438.2
20260506142950 65 195 1.0 5.0 0.00 0.00 0.00 43 1439.1
20260506142750 65 207 1.0 5.0 0.00 0.00 0.00 43 1439.3
20260506142550 65 183 1.0 5.0 0.00 0.00 0.00 44 1438.8
20260506142350 64 197 1.0 5.0 0.00 0.00 0.00 44 1438.2
20260506142150 65 223 2.0 5.0 0.00 0.00 0.00 44 1438.8
20260506141950 65 192 1.0 5.0 0.00 0.00 0.00 44 1439.5
20260506141750 66 220 2.0 4.0 0.00 0.00 0.00 44 1439.8
20260506141550 66 213 2.0 4.0 0.00 0.00 0.00 43 1440.3
20260506141350 67 219 1.0 4.0 0.00 0.00 0.00 43 1440.9
20260506141150 66 195 1.0 4.0 0.00 0.00 0.00 43 1440.7
20260506140950 66 236 1.0 4.0 0.00 0.00 0.00 43 1440.9
20260506140750 67 213 1.0 5.0 0.00 0.00 0.00 43 1441.6
20260506140550 67 211 1.0 5.0 0.00 0.00 0.00 44 1441.5
20260506140350 66 212 1.0 5.0 0.00 0.00 0.00 45 1440.7
20260506140150 66 187 1.0 5.0 0.00 0.00 0.00 45 1439.8
20260506135950 65 206 1.0 5.0 0.00 0.00 0.00 45 1438.8
20260506135750 65 195 2.0 5.0 0.00 0.00 0.00 44 1439.2
20260506135550 66 218 1.0 4.0 0.00 0.00 0.00 44 1440.2
20260506135350 66 227 1.0 4.0 0.00 0.00 0.00 45 1439.9
20260506135150 65 214 2.0 5.0 0.00 0.00 0.00 45 1439.4
20260506134950 65 207 1.0 5.0 0.00 0.00 0.00 44 1439.5
20260506134750 66 218 1.0 5.0 0.00 0.00 0.00 44 1440.1
20260506134550 66 216 2.0 5.0 0.00 0.00 0.00 45 1439.8
20260506134350 66 201 1.0 5.0 0.00 0.00 0.00 45 1440.1
20260506134150 66 203 1.0 5.0 0.00 0.00 0.00 45 1440.1
20260506133950 66 216 1.0 5.0 0.00 0.00 0.00 46 1440.2
20260506133750 65 227 1.0 5.0 0.00 0.00 0.00 46 1439.2
20260506133550 65 224 2.0 5.0 0.00 0.00 0.00 45 1438.7
20260506133350 65 201 1.0 5.0 0.00 0.00 0.00 46 1439.0
20260506133150 65 213 2.0 5.0 0.00 0.00 0.00 45 1439.3
20260506132950 65 221 1.0 4.0 0.00 0.00 0.00 45 1439.3
20260506132750 65 187 1.0 6.0 0.00 0.00 0.00 46 1438.9
20260506132551 65 231 2.0 6.0 0.00 0.00 0.00 47 1438.3
20260506132350 64 195 1.0 6.0 0.00 0.00 0.00 47 1437.9
20260506132150 64 208 2.0 6.0 0.00 0.00 0.00 46 1437.7
20260506131950 65 193 1.0 6.0 0.00 0.00 0.00 45 1438.4
20260506131750 64 195 2.0 5.0 0.00 0.00 0.00 45 1438.0
20260506131551 64 206 2.0 5.0 0.00 0.00 0.00 45 1437.9
20260506131350 64 230 1.0 5.0 0.00 0.00 0.00 47 1437.7
20260506131150 64 209 2.0 5.0 0.00 0.00 0.00 47 1437.4
20260506130950 64 205 2.0 5.0 0.00 0.00 0.00 47 1437.2
20260506130750 64 212 1.0 5.0 0.00 0.00 0.00 47 1437.1
20260506130550 64 215 2.0 5.0 0.00 0.00 0.00 47 1436.9
20260506130350 64 229 2.0 5.0 0.00 0.00 0.00 48 1436.9
20260506130150 63 196 1.0 5.0 0.00 0.00 0.00 49 1436.7
20260506125950 63 213 2.0 5.0 0.00 0.00 0.00 49 1435.7
20260506125750 62 212 2.0 5.0 0.00 0.00 0.00 49 1434.9
20260506125550 62 201 2.0 6.0 0.00 0.00 0.00 50 1434.8
20260506125350 62 220 2.0 6.0 0.00 0.00 0.00 50 1434.4
20260506125150 61 214 1.0 6.0 0.00 0.00 0.00 50 1433.7
20260506124950 61 197 1.0 6.0 0.00 0.00 0.00 50 1433.0
20260506124750 60 221 2.0 6.0 0.00 0.00 0.00 49 1432.9
20260506124550 61 203 2.0 6.0 0.00 0.00 0.00 49 1433.3
20260506124350 61 216 2.0 6.0 0.00 0.00 0.00 49 1433.3
20260506124150 61 177 1.0 4.0 0.00 0.00 0.00 50 1433.5
20260506123951 61 201 1.0 4.0 0.00 0.00 0.00 50 1433.2
20260506123750 60 210 1.0 4.0 0.00 0.00 0.00 51 1432.7
20260506123550 60 204 2.0 6.0 0.00 0.00 0.00 50 1432.2
20260506123350 60 189 1.0 6.0 0.00 0.00 0.00 51 1431.8
20260506123150 59 215 2.0 6.0 0.00 0.00 0.00 50 1431.3
20260506122950 59 192 1.0 6.0 0.00 0.00 0.00 50 1431.5
20260506122750 59 186 1.0 5.0 0.00 0.00 0.00 51 1431.2
20260506122550 59 234 1.0 4.0 0.00 0.00 0.00 50 1431.1
20260506122350 59 197 2.0 5.0 0.00 0.00 0.00 51 1430.7
20260506122150 59 208 1.0 5.0 0.00 0.00 0.00 50 1430.4
20260506121950 59 214 2.0 5.0 0.00 0.00 0.00 50 1430.4
20260506121750 58 208 1.0 8.0 0.00 0.00 0.00 50 1430.2
20260506121550 58 199 1.0 8.0 0.00 0.00 0.00 50 1430.0
20260506121350 58 185 2.0 8.0 0.00 0.00 0.00 50 1429.8
20260506121150 58 222 2.0 8.0 0.00 0.00 0.00 50 1430.0
20260506120950 58 213 2.0 8.0 0.00 0.00 0.00 49 1429.9
20260506120750 58 222 1.0 6.0 0.00 0.00 0.00 50 1429.5
20260506120550 58 242 2.0 6.0 0.00 0.00 0.00 49 1429.1
20260506120350 58 223 2.0 6.0 0.00 0.00 0.00 48 1429.3
20260506120150 58 215 2.0 6.0 0.00 0.00 0.00 48 1429.0
20260506115950 57 183 1.0 6.0 0.00 0.00 0.00 48 1429.0
20260506115750 57 220 2.0 6.0 0.00 0.00 0.00 48 1428.5
20260506115550 57 218 2.0 6.0 0.00 0.00 0.00 49 1428.4
20260506115350 57 230 2.0 6.0 0.00 0.00 0.00 49 1428.2
20260506115150 57 221 2.0 8.0 0.00 0.00 0.00 49 1428.1
20260506114950 57 229 2.0 8.0 0.00 0.00 0.00 48 1428.3
20260506114750 57 218 2.0 8.0 0.00 0.00 0.00 47 1427.9
20260506114550 57 190 2.0 8.0 0.00 0.00 0.00 46 1428.1
20260506114350 57 213 2.0 6.0 0.00 0.00 0.00 46 1428.5
20260506114150 57 217 1.0 6.0 0.00 0.00 0.00 46 1428.2
20260506113951 57 202 2.0 6.0 0.00 0.00 0.00 46 1428.3
20260506113751 57 223 2.0 5.0 0.00 0.00 0.00 47 1428.5
20260506113550 57 228 2.0 5.0 0.00 0.00 0.00 46 1428.7
20260506113350 57 210 1.0 5.0 0.00 0.00 0.00 43 1428.5
20260506113150 57 194 1.0 6.0 0.00 0.00 0.00 42 1428.4
20260506112950 57 202 2.0 6.0 0.00 0.00 0.00 42 1428.4
20260506112750 57 230 2.0 6.0 0.00 0.00 0.00 42 1428.8
20260506112550 58 209 2.0 6.0 0.00 0.00 0.00 43 1429.4
20260506112350 58 190 1.0 4.0 0.00 0.00 0.00 41 1429.6
20260506112150 58 195 1.0 5.0 0.00 0.00 0.00 42 1429.3
20260506111950 57 222 2.0 5.0 0.00 0.00 0.00 42 1429.0
20260506111750 57 177 2.0 5.0 0.00 0.00 0.00 41 1428.7
20260506111550 57 204 1.0 5.0 0.00 0.00 0.00 42 1428.7
20260506111350 57 200 2.0 5.0 0.00 0.00 0.00 40 1428.5
20260506111150 57 233 1.0 5.0 0.00 0.00 0.00 41 1428.3
20260506110950 57 184 1.0 5.0 0.00 0.00 0.00 43 1428.2
20260506110750 57 186 2.0 5.0 0.00 0.00 0.00 42 1428.0
20260506110550 57 210 2.0 5.0 0.00 0.00 0.00 42 1427.9
20260506110350 56 205 1.0 5.0 0.00 0.00 0.00 41 1427.4
20260506110150 56 198 2.0 5.0 0.00 0.00 0.00 41 1427.3
20260506105950 56 178 2.0 6.0 0.00 0.00 0.00 41 1427.5
20260506105750 56 180 1.0 6.0 0.00 0.00 0.00 40 1427.5
20260506105550 57 176 2.0 6.0 0.00 0.00 0.00 38 1427.7
20260506105350 57 201 2.0 9.0 0.00 0.00 0.00 36 1428.0
20260506105150 57 189 1.0 9.0 0.00 0.00 0.00 35 1428.2
20260506104950 57 173 2.0 9.0 0.00 0.00 0.00 35 1428.1
20260506104750 57 183 3.0 9.0 0.00 0.00 0.00 31 1428.2
20260506104550 58 193 4.0 8.0 0.00 0.00 0.00 31 1429.0
20260506104350 59 187 2.0 7.0 0.00 0.00 0.00 33 1430.5
20260506104150 59 170 2.0 7.0 0.00 0.00 0.00 34 1430.6
20260506103950 59 193 2.0 7.0 0.00 0.00 0.00 35 1430.6
20260506103750 58 192 2.0 7.0 0.00 0.00 0.00 35 1430.0
20260506103550 58 209 2.0 8.0 0.00 0.00 0.00 34 1429.6
20260506103350 58 193 3.0 8.0 0.00 0.00 0.00 34 1429.2
20260506103150 57 180 2.0 11.0 0.00 0.00 0.00 36 1428.9
20260506102950 57 219 2.0 11.0 0.00 0.00 0.00 35 1428.2
20260506102550 55 179 2.0 11.0 0.00 0.00 0.00 34 1426.2
20260506102350 55 161 4.0 11.0 0.00 0.00 0.00 33 1426.4
20260506102151 55 184 4.0 10.0 0.00 0.00 0.00 34 1426.4
20260506101950 56 177 3.0 10.0 0.00 0.00 0.00 34 1426.7
20260506101750 56 211 3.0 11.0 0.00 0.00 0.00 34 1427.2
20260506101551 57 186 3.0 11.0 0.00 0.00 0.00 34 1427.8
20260506101350 57 161 1.0 11.0 0.00 0.00 0.00 35 1427.7
20260506101150 56 186 3.0 11.0 0.00 0.00 0.00 33 1427.3
20260506100950 56 183 2.0 11.0 0.00 0.00 0.00 33 1426.9
20260506100750 56 192 4.0 8.0 0.00 0.00 0.00 32 1427.3
20260506100550 57 195 2.0 8.0 0.00 0.00 0.00 34 1428.6
20260506100350 57 187 3.0 8.0 0.00 0.00 0.00 33 1428.5
20260506100150 57 162 2.0 8.0 0.00 0.00 0.00 32 1428.2
20260506095950 57 176 3.0 8.0 0.00 0.00 0.00 32 1428.2
20260506095750 56 165 2.0 8.0 0.00 0.00 0.00 33 1427.4
20260506095550 56 169 5.0 8.0 0.00 0.00 0.00 33 1427.4
20260506095350 57 178 2.0 8.0 0.00 0.00 0.00 34 1427.9
20260506095150 57 169 3.0 10.0 0.00 0.00 0.00 33 1428.2
20260506094951 57 189 2.0 10.0 0.00 0.00 0.00 35 1428.3
20260506094750 56 169 2.0 10.0 0.00 0.00 0.00 35 1427.5
20260506094551 56 190 4.0 10.0 0.00 0.00 0.00 34 1427.0
20260506094350 56 172 2.0 10.0 0.00 0.00 0.00 35 1427.2
20260506094150 56 163 3.0 10.0 0.00 0.00 0.00 34 1426.9
20260506093950 56 187 5.0 10.0 0.00 0.00 0.00 34 1426.8
20260506093750 56 175 3.0 10.0 0.00 0.00 0.00 35 1427.6
20260506093550 56 172 3.0 8.0 0.00 0.00 0.00 36 1427.2
20260506093350 56 176 2.0 12.0 0.00 0.00 0.00 37 1427.0
20260506093150 56 174 2.0 12.0 0.00 0.00 0.00 37 1427.4
20260506092950 56 214 3.0 12.0 0.00 0.00 0.00 37 1427.1
20260506092750 56 205 2.0 12.0 0.00 0.00 0.00 36 1426.9
20260506092550 56 182 2.0 11.0 0.00 0.00 0.00 36 1427.0
20260506092350 56 175 3.0 11.0 0.00 0.00 0.00 36 1427.3
20260506092150 56 202 2.0 8.0 0.00 0.00 0.00 36 1427.4
20260506091950 56 186 2.0 8.0 0.00 0.00 0.00 35 1427.7
20260506091751 57 185 2.0 8.0 0.00 0.00 0.00 35 1427.9
20260506091550 56 177 2.0 8.0 0.00 0.00 0.00 33 1427.5
20260506091350 56 170 2.0 8.0 0.00 0.00 0.00 34 1426.9
20260506091150 56 189 3.0 8.0 0.00 0.00 0.00 36 1426.6
20260506090950 55 168 2.0 10.0 0.00 0.00 0.00 37 1426.2
20260506090750 55 195 3.0 10.0 0.00 0.00 0.00 36 1426.1
20260506090550 55 202 3.0 10.0 0.00 0.00 0.00 35 1426.2
20260506090350 55 199 4.0 10.0 0.00 0.00 0.00 34 1426.4
20260506090150 56 190 2.0 8.0 0.00 0.00 0.00 34 1426.8
20260506085950 55 174 2.0 12.0 0.00 0.00 0.00 35 1426.2
20260506085750 55 194 3.0 12.0 0.00 0.00 0.00 34 1426.2
20260506085550 55 158 2.0 12.0 0.00 0.00 0.00 36 1426.0
20260506085350 55 171 3.0 12.0 0.00 0.00 0.00 36 1425.3
20260506085150 54 193 3.0 12.0 0.00 0.00 0.00 37 1424.8
20260506084950 54 197 3.0 9.0 0.00 0.00 0.00 37 1424.6
20260506084750 54 193 3.0 8.0 0.00 0.00 0.00 38 1424.8
20260506084550 54 192 2.0 7.0 0.00 0.00 0.00 40 1424.6
20260506084350 54 185 3.0 7.0 0.00 0.00 0.00 41 1424.2
20260506084150 54 223 3.0 7.0 0.00 0.00 0.00 42 1423.9
20260506083950 54 203 3.0 7.0 0.00 0.00 0.00 43 1423.9
20260506083750 54 179 3.0 7.0 0.00 0.00 0.00 44 1424.1
20260506083550 54 194 2.0 5.0 0.00 0.00 0.00 44 1424.2
20260506083350 54 175 3.0 5.0 0.00 0.00 0.00 45 1424.2
20260506083150 54 187 1.0 6.0 0.00 0.00 0.00 46 1424.4
20260506082950 54 202 1.0 6.0 0.00 0.00 0.00 47 1424.2
20260506082750 54 190 2.0 6.0 0.00 0.00 0.00 47 1424.1
20260506082550 54 205 2.0 7.0 0.00 0.00 0.00 47 1424.2
20260506082350 54 200 1.0 7.0 0.00 0.00 0.00 47 1424.3
20260506082150 54 182 2.0 7.0 0.00 0.00 0.00 46 1424.1
20260506081950 54 156 2.0 7.0 0.00 0.00 0.00 47 1424.0
20260506081750 54 194 2.0 7.0 0.00 0.00 0.00 50 1424.2
20260506081550 53 237 1.0 4.0 0.00 0.00 0.00 51 1423.6
20260506081350 53 211 1.0 4.0 0.00 0.00 0.00 49 1423.1
20260506081150 53 187 2.0 4.0 0.00 0.00 0.00 48 1423.1
20260506080950 53 174 1.0 4.0 0.00 0.00 0.00 51 1423.5
20260506080750 54 231 1.0 7.0 0.00 0.00 0.00 51 1423.8
20260506080550 54 209 1.0 7.0 0.00 0.00 0.00 51 1423.9
20260506080350 54 232 1.0 7.0 0.00 0.00 0.00 52 1423.9
20260506080150 53 198 2.0 7.0 0.00 0.00 0.00 50 1423.6
20260506073350 52 121 1.0 4.0 0.00 0.00 0.00 52 1421.9
20260506073150 52 138 1.0 5.0 0.00 0.00 0.00 53 1421.8
20260506072950 52 137 1.0 5.0 0.00 0.00 0.00 53 1421.4
20260506072750 52 124 2.0 5.0 0.00 0.00 0.00 53 1421.3
20260506072550 52 115 0.0 5.0 0.00 0.00 0.00 53 1421.2
20260506072350 51 99 2.0 5.0 0.00 0.00 0.00 53 1421.0
20260506072150 51 131 1.0 5.0 0.00 0.00 0.00 54 1420.6
20260506071950 51 111 2.0 5.0 0.00 0.00 0.00 55 1420.4
20260506071750 51 127 1.0 5.0 0.00 0.00 0.00 57 1420.7
20260506071550 51 124 1.0 5.0 0.00 0.00 0.00 58 1421.0
20260506071350 51 113 1.0 5.0 0.00 0.00 0.00 58 1420.7
20260506071150 51 96 2.0 5.0 0.00 0.00 0.00 59 1420.6
20260506070950 51 109 1.0 4.0 0.00 0.00 0.00 60 1420.5
20260506070751 51 140 1.0 4.0 0.00 0.00 0.00 61 1420.8
20260506070550 51 76 1.0 4.0 0.00 0.00 0.00 61 1420.6
20260506070350 51 96 1.0 4.0 0.00 0.00 0.00 61 1420.1
20260506070150 50 116 1.0 4.0 0.00 0.00 0.00 60 1419.8
20260506062350 48 114 1.0 5.0 0.00 0.00 0.00 64 1415.9
20260506062150 47 117 1.0 5.0 0.00 0.00 0.00 65 1415.9
20260506061950 47 121 1.0 6.0 0.00 0.00 0.00 65 1415.7
20260506061750 47 131 1.0 6.0 0.00 0.00 0.00 65 1415.6
20260506061550 47 144 1.0 6.0 0.00 0.00 0.00 65 1415.2
20260506061350 47 107 2.0 6.0 0.00 0.00 0.00 66 1414.8
20260506061150 46 97 1.0 6.0 0.00 0.00 0.00 66 1414.6
20260506060950 46 113 2.0 6.0 0.00 0.00 0.00 66 1414.2
20260506060750 46 107 2.0 6.0 0.00 0.00 0.00 67 1414.1
20260506060550 46 114 1.0 5.0 0.00 0.00 0.00 67 1414.0
20260506060350 46 114 2.0 5.0 0.00 0.00 0.00 67 1413.9
20260506060150 46 102 2.0 5.0 0.00 0.00 0.00 68 1413.7
20260506051350 43 122 1.0 4.0 0.00 0.00 0.00 79 1413.5
20260506051345 43 100 1.0 4.0 0.00 0.00 0.00 80 1413.4
20260506050950 43 96 1.0 4.0 0.00 0.00 0.00 81 1413.0
20260506050750 42 107 1.0 4.0 0.00 0.00 0.00 81 1412.7
20260506050550 42 110 1.0 4.0 0.00 0.00 0.00 82 1412.5
20260506050350 42 115 1.0 4.0 0.00 0.00 0.00 83 1412.3
20260506050150 42 93 2.0 4.0 0.00 0.00 0.00 84 1412.0
20260506044950 40 102 1.0 3.0 0.00 0.00 0.00 87 1412.6